Weather in Doschatoye

Russia / Nizhny Novgorod Oblast'     55°24′16″N   42°06′22″E
temp.,
°C
wind,
m/s
gust,
m/s
humid.,
%
clouds,
%
prec.,
mm/h
press.,
hPa
HPBL,
m
8 march, mon
mon800:00−8w4787100 0.8 993115
03:00−7wsw5129484 1.5 995649
06:00−10wsw5119266 0.1 996254
09:00−9sw469467 0.1 997267
12:00−5wsw2489100 0.1 998495
15:00−5nw467892 0.3 9991005
18:00−9wnw48860 0.1 1002139
21:00−12wnw36937 0.1 100590
9 march, tue
tue900:00−14nw349633 0.0 100745
03:00−16nw339629 0.0 100935
06:00−18nw339840 0.0 101134
09:00−15nnw359565 0.1 1012256
12:00−12nnw359199 0.0 1013443
15:00−11nnw458699 0.1 1014722
18:00−14nnw4893100 0.1 1015247
21:00−18nnw4996100 0.1 1018240
10 march, wed
wed1000:00−19nnw489795 0.1 1019182
03:00−21nnw489795 0.1 1021229
06:00−24nnw489894 0.0 1023198
09:00−23n589475 0.1 1024338
12:00−19n578772 0.0 1025539
15:00−16nnw478054 0.0 1026747
18:00−19nw349016 0.0 102657
21:00−21wnw369329 0.0 102795
11 march, thu
thu1100:00−21wnw349894 0.0 102881
03:00−23nw349886 0.0 102958
06:00−23nw349832 0.0 102942
09:00−18wnw369429 0.0 1030226
12:00−11wnw478918 0.0 1029381
15:00−8nw478610 0.0 1029532
18:00−11wnw349137 0.0 102949
21:00−15wnw339219 0.0 103025
12 march, fri
fri1200:00−16w22920 0.0 103120
03:00−17wsw23950 0.0 103121
06:00−19sw34950 0.0 103136
09:00−15ssw46930 0.0 1031240
12:00−11ssw598631 0.0 1029488
15:00−8ssw6107916 0.0 1028783
18:00−11s6128565 0.0 1025376
21:00−12s7158682 0.0 1025501